User: anonymous   Login
Location: ROBOsky.com Wild Flower Ridge Observatory
(43.9736°N, 79.9739°W)
Time: 18:44:04
(UTC-05:00)
Language:

Cosmos 1190 Rocket - Orbit

View from above orbital plane
View from above orbital plane
View from above satellite
View from above satellite

Ground track
Ground track

The orbit data is extracted from the following two-line orbital elements,

1 11870U 80056B   14351.47288524  .00000402  00000-0  14546-3 0  8853
2 11870 074.0543 083.5997 0017667 265.0176 173.3598 14.36602281803737
Epoch (UTC): 17 December 2014 11:20:57
Eccentricity: 0.0017667
inclination: 74.0543°
perigee height: 757 km
apogee height: 782 km
right ascension of ascending node: 83.5997°
argument of perigee: 265.0176°
revolutions per day: 14.36602281
mean anomaly at epoch: 173.3598°
orbit number at epoch: 80373

The dashed part of the orbit path shows where the satellite is in the earth's shadow,  

DLR